contact:dominique.lefevre@mio.osupytheas.fr, maurice.libes@osupytheas.fr, didier.mallarino@osupytheas.fr
Project:EMSO http://www.emso-fr.org/EMSO-France
Depth: 2436.0 m
Title:EMSO Ligure Ouest : Data MII capteur AQUADOPP
Date,Latitude,Longitude,X_East,Y_North,Z_Up,Amplitude_X,Amplitude_Y,Amplitude_Z,Batterie,SoundSpeed,Heading,Pitch,Roll,Pressure,TIS,Speed,Direction
, degrees North, degrees East, m.s-1, m.s-1,m.s-1, 1, 1, 1, Volt, m.s-1, degree, degree, degree, dbar, degree_C, m.s-1, degree
2020-09-03T00:04:02,42.805,6.029,-0.014,-0.01,0.015,103.0,104.0,101.0,13.4,1505.3,326.2,-0.7,1.8,2470.402,13.31,0.017,234.5
2020-09-03T00:07:03,42.805,6.029,-0.049,-0.005,-0.022,102.0,105.0,101.0,13.4,1505.3,323.8,-0.7,1.8,2470.409,13.31,0.049,264.2
2020-09-03T00:10:03,42.805,6.029,-0.017,-0.022,0.02,104.0,106.0,101.0,13.4,1505.3,323.9,-0.7,1.8,2470.399,13.32,0.027,217.7
2020-09-03T00:13:03,42.805,6.029,-0.02,-0.01,0.0,103.0,106.0,100.0,13.4,1505.3,325.1,-0.7,1.8,2470.399,13.32,0.022,243.4
2020-09-03T00:16:03,42.805,6.029,-0.032,-0.026,-0.001,103.0,103.0,101.0,13.4,1505.3,326.4,-0.7,1.8,2470.369,13.33,0.041,230.9
2020-09-03T00:19:02,42.805,6.029,-0.039,-0.006,0.007,103.0,105.0,100.0,13.4,1505.3,327.7,-0.7,1.8,2470.386,13.33,0.039,261.3
2020-09-03T00:22:03,42.805,6.029,-0.044,-0.025,-0.008,101.0,106.0,100.0,13.4,1505.3,324.0,-0.7,1.8,2470.362,13.33,0.05,240.4
2020-09-03T00:25:03,42.805,6.029,-0.013,0.005,0.002,104.0,105.0,100.0,13.3,1505.3,328.5,-0.7,1.8,2470.352,13.33,0.013,291.0
2020-09-03T00:28:02,42.805,6.029,-0.057,-0.033,-0.04,103.0,107.0,101.0,13.4,1505.3,325.1,-0.7,1.8,2470.4,13.33,0.065,239.9
2020-09-03T00:31:03,42.805,6.029,-0.043,-0.004,0.006,102.0,104.0,101.0,13.3,1505.3,328.3,-0.7,1.8,2470.359,13.33,0.043,264.7
2020-09-03T00:34:03,42.805,6.029,-0.034,-0.01,-0.012,103.0,103.0,102.0,13.4,1505.3,323.3,-0.7,1.8,2470.353,13.33,0.035,253.6
2020-09-03T00:37:02,42.805,6.029,-0.037,-0.033,-0.03,103.0,106.0,100.0,13.4,1505.3,323.7,-0.7,1.8,2470.373,13.33,0.049,228.3
2020-09-03T00:40:02,42.805,6.029,0.035,-0.012,0.062,102.0,104.0,99.0,13.4,1505.3,326.6,-0.7,1.8,2470.349,13.33,0.037,108.9
2020-09-03T00:43:03,42.805,6.029,-0.031,-0.014,0.031,102.0,105.0,102.0,13.4,1505.3,326.4,-0.7,1.8,2470.379,13.33,0.034,245.7
2020-09-03T00:46:02,42.805,6.029,-0.03,-0.034,-0.018,103.0,105.0,100.0,13.4,1505.3,324.7,-0.7,1.8,2470.372,13.33,0.045,221.4
2020-09-03T00:49:03,42.805,6.029,0.01,-0.006,0.028,103.0,105.0,100.0,13.4,1505.3,324.1,-0.7,1.8,2470.353,13.33,0.011,121.0
2020-09-03T00:52:03,42.805,6.029,-0.018,-0.024,0.015,100.0,104.0,102.0,13.3,1505.3,326.4,-0.7,1.8,2470.377,13.33,0.03,216.9
2020-09-03T00:55:03,42.805,6.029,-0.011,-0.032,0.01,103.0,105.0,101.0,13.4,1505.3,324.4,-0.7,1.8,2470.31,13.33,0.033,199.0
2020-09-03T00:58:03,42.805,6.029,-0.03,-0.035,0.014,102.0,104.0,101.0,13.4,1505.3,327.9,-0.7,1.9,2470.373,13.33,0.046,220.6
2020-09-03T01:04:03,42.805,6.029,0.001,-0.014,0.032,105.0,105.0,103.0,13.3,1505.3,325.4,-0.8,1.9,2470.375,13.31,0.014,175.9
2020-09-03T01:07:02,42.805,6.029,-0.016,-0.031,0.009,103.0,104.0,101.0,13.4,1505.3,326.7,-0.7,1.8,2470.392,13.32,0.034,207.3
2020-09-03T01:10:03,42.805,6.029,-0.041,-0.018,-0.033,103.0,104.0,101.0,13.4,1505.3,324.2,-0.7,1.8,2470.336,13.32,0.044,246.3
2020-09-03T01:13:03,42.805,6.029,-0.036,-0.03,-0.008,104.0,106.0,101.0,13.3,1505.3,325.4,-0.7,1.8,2470.391,13.32,0.046,230.2
2020-09-03T01:16:06,42.805,6.029,-0.022,-0.025,0.02,105.0,104.0,100.0,13.3,1505.3,327.5,-0.7,1.8,2470.35,13.33,0.033,221.3
2020-09-03T01:19:03,42.805,6.029,-0.012,-0.019,-0.012,103.0,104.0,100.0,13.4,1505.3,324.5,-0.7,1.8,2470.367,13.33,0.022,212.3
2020-09-03T01:22:02,42.805,6.029,-0.011,-0.027,0.009,103.0,104.0,101.0,13.4,1505.3,322.8,-0.7,1.8,2470.341,13.33,0.029,202.2
2020-09-03T01:25:03,42.805,6.029,-0.028,-0.037,-0.011,102.0,106.0,101.0,13.3,1505.3,323.8,-0.7,1.8,2470.359,13.33,0.046,217.1
2020-09-03T01:28:03,42.805,6.029,-0.013,-0.028,0.009,102.0,104.0,104.0,13.4,1505.3,325.8,-0.7,1.8,2470.37,13.33,0.03,204.9
2020-09-03T01:31:03,42.805,6.029,0.01,-0.03,0.018,103.0,104.0,101.0,13.4,1505.3,324.1,-0.7,1.9,2470.303,13.33,0.031,161.6
2020-09-03T01:34:03,42.805,6.029,0.001,-0.035,0.008,102.0,104.0,101.0,13.4,1505.3,324.9,-0.7,1.8,2470.353,13.33,0.035,178.4
2020-09-03T01:37:03,42.805,6.029,0.021,-0.021,0.029,102.0,104.0,102.0,13.3,1505.3,327.8,-0.7,1.8,2470.351,13.33,0.029,135.0
2020-09-03T01:40:02,42.805,6.029,-0.007,-0.02,0.017,103.0,107.0,101.0,13.4,1505.3,327.8,-0.7,1.8,2470.354,13.33,0.021,199.3
2020-09-03T01:43:03,42.805,6.029,0.02,-0.033,0.001,104.0,103.0,103.0,13.4,1505.3,328.1,-0.7,1.8,2470.34,13.33,0.038,148.8
2020-09-03T01:46:02,42.805,6.029,0.018,-0.044,0.032,104.0,105.0,101.0,13.4,1505.3,327.5,-0.7,1.9,2470.305,13.33,0.047,157.8
2020-09-03T01:49:02,42.805,6.029,-0.008,-0.017,0.025,104.0,105.0,100.0,13.3,1505.3,326.6,-0.7,1.9,2470.297,13.33,0.018,205.2
2020-09-03T01:52:03,42.805,6.029,-0.046,-0.042,-0.022,104.0,106.0,101.0,13.4,1505.3,324.5,-0.7,1.8,2470.33,13.33,0.062,227.6
2020-09-03T01:55:03,42.805,6.029,-0.035,-0.019,0.029,103.0,105.0,102.0,13.3,1505.3,323.8,-0.7,1.8,2470.294,13.33,0.039,241.5
2020-09-03T01:58:03,42.805,6.029,-0.035,-0.027,-0.012,103.0,104.0,102.0,13.3,1505.3,327.9,-0.7,1.8,2470.313,13.33,0.044,232.3
2020-09-03T02:04:03,42.805,6.029,-0.012,-0.028,0.013,102.0,103.0,101.0,13.3,1505.3,327.7,-0.7,1.8,2470.333,13.31,0.03,203.2
2020-09-03T02:07:03,42.805,6.029,-0.018,-0.026,0.019,103.0,106.0,101.0,13.3,1505.3,324.7,-0.7,1.9,2470.354,13.32,0.031,214.7
2020-09-03T02:10:03,42.805,6.029,-0.037,-0.034,-0.026,102.0,105.0,101.0,13.4,1505.3,325.8,-0.7,1.8,2470.312,13.32,0.05,227.4
2020-09-03T02:16:03,42.805,6.029,-0.045,-0.026,-0.028,103.0,104.0,102.0,13.4,1505.3,324.9,-0.7,1.8,2470.367,13.31,0.051,240.0
2020-09-03T02:19:02,42.805,6.029,-0.043,-0.019,-0.02,103.0,106.0,101.0,13.4,1505.3,325.8,-0.7,1.8,2470.319,13.31,0.047,246.2
2020-09-03T02:22:03,42.805,6.029,-0.02,-0.051,-0.004,104.0,103.0,103.0,13.4,1505.3,326.9,-0.7,1.8,2470.373,13.32,0.054,201.4
2020-09-03T02:25:03,42.805,6.029,-0.035,-0.04,-0.03,103.0,103.0,101.0,13.4,1505.3,325.8,-0.7,1.8,2470.321,13.32,0.053,221.2
2020-09-03T02:28:03,42.805,6.029,-0.031,-0.03,0.005,103.0,104.0,101.0,13.3,1505.3,326.0,-0.7,1.8,2470.344,13.32,0.043,225.9
2020-09-03T02:31:03,42.805,6.029,-0.02,-0.036,-0.003,104.0,104.0,99.0,13.3,1505.3,324.9,-0.7,1.8,2470.365,13.32,0.041,209.1
2020-09-03T02:34:03,42.805,6.029,-0.012,-0.032,0.021,104.0,103.0,100.0,13.4,1505.3,326.3,-0.7,1.8,2470.322,13.33,0.034,200.6
2020-09-03T02:37:03,42.805,6.029,-0.022,-0.031,-0.002,104.0,103.0,101.0,13.4,1505.3,327.7,-0.7,1.8,2470.322,13.33,0.038,215.4
2020-09-03T02:40:03,42.805,6.029,-0.017,-0.038,0.001,102.0,104.0,100.0,13.4,1505.3,325.7,-0.7,1.9,2470.346,13.33,0.041,204.1
2020-09-03T02:43:02,42.805,6.029,-0.019,-0.025,-0.048,103.0,106.0,101.0,13.4,1505.3,324.9,-0.7,1.9,2470.337,13.33,0.031,217.2
2020-09-03T02:46:03,42.805,6.029,-0.056,-0.029,-0.02,103.0,104.0,101.0,13.4,1505.3,324.2,-0.7,1.8,2470.362,13.33,0.063,242.6
2020-09-03T02:49:03,42.805,6.029,-0.014,-0.023,-0.004,103.0,103.0,101.0,13.4,1505.3,323.3,-0.7,1.8,2470.297,13.33,0.026,211.3
2020-09-03T02:52:02,42.805,6.029,-0.003,-0.028,0.016,102.0,105.0,101.0,13.3,1505.3,325.3,-0.7,1.8,2470.383,13.33,0.028,186.1
2020-09-03T02:55:02,42.805,6.029,-0.028,-0.019,-0.002,102.0,105.0,100.0,13.3,1505.3,327.7,-0.7,1.8,2470.329,13.33,0.033,235.8
2020-09-03T02:58:03,42.805,6.029,-0.024,-0.027,0.023,102.0,105.0,102.0,13.4,1505.3,324.5,-0.7,1.9,2470.3,13.33,0.036,221.6
2020-09-03T03:04:03,42.805,6.029,-0.002,-0.031,0.001,104.0,104.0,101.0,13.4,1505.3,325.2,-0.7,1.8,2470.381,13.31,0.031,183.7
2020-09-03T03:10:03,42.805,6.029,-0.021,-0.034,-0.034,103.0,104.0,101.0,13.4,1505.2,326.0,-0.7,1.8,2470.386,13.3,0.039,211.7
2020-09-03T03:13:03,42.805,6.029,-0.03,-0.041,-0.052,103.0,104.0,101.0,13.4,1505.3,324.2,-0.7,1.8,2470.339,13.31,0.05,216.2
2020-09-03T03:16:02,42.805,6.029,-0.029,-0.017,-0.001,104.0,104.0,104.0,13.4,1505.3,327.6,-0.7,1.8,2470.335,13.32,0.033,239.6
2020-09-03T03:19:03,42.805,6.029,-0.017,-0.034,0.01,103.0,103.0,102.0,13.4,1505.3,324.6,-0.7,1.8,2470.349,13.32,0.038,206.6
2020-09-03T03:22:03,42.805,6.029,-0.025,-0.056,0.01,103.0,104.0,102.0,13.4,1505.3,324.3,-0.7,1.8,2470.38,13.32,0.061,204.1
2020-09-03T03:25:03,42.805,6.029,-0.022,-0.028,-0.005,103.0,106.0,101.0,13.3,1505.3,326.1,-0.7,1.8,2470.339,13.32,0.035,218.2
2020-09-03T03:28:03,42.805,6.029,-0.01,-0.036,0.006,102.0,104.0,103.0,13.4,1505.3,326.2,-0.7,1.8,2470.344,13.32,0.037,195.5
2020-09-03T03:31:03,42.805,6.029,-0.016,-0.048,-0.044,104.0,104.0,102.0,13.4,1505.3,325.8,-0.7,1.8,2470.312,13.33,0.05,198.4
2020-09-03T03:34:03,42.805,6.029,-0.019,-0.017,-0.004,103.0,105.0,101.0,13.3,1505.3,323.6,-0.7,1.8,2470.334,13.33,0.025,228.2
2020-09-03T03:37:03,42.805,6.029,-0.025,-0.025,-0.017,102.0,104.0,100.0,13.3,1505.3,324.9,-0.7,1.9,2470.375,13.33,0.035,225.0
2020-09-03T03:40:03,42.805,6.029,-0.022,-0.016,0.009,103.0,105.0,100.0,13.4,1505.3,324.2,-0.7,1.9,2470.36,13.33,0.027,234.0
2020-09-03T03:43:03,42.805,6.029,-0.031,-0.019,-0.017,105.0,104.0,100.0,13.3,1505.3,326.9,-0.7,1.8,2470.346,13.33,0.036,238.5
2020-09-03T03:46:03,42.805,6.029,0.0,-0.042,0.006,103.0,104.0,102.0,13.4,1505.3,326.4,-0.7,1.8,2470.311,13.33,0.042,180.0
2020-09-03T03:49:02,42.805,6.029,-0.032,-0.041,-0.004,104.0,104.0,101.0,13.4,1505.3,322.9,-0.7,1.8,2470.289,13.33,0.052,218.0
2020-09-03T03:52:03,42.805,6.029,-0.012,-0.022,0.048,103.0,105.0,100.0,13.4,1505.3,323.7,-0.7,1.8,2470.401,13.33,0.025,208.6
2020-09-03T03:55:03,42.805,6.029,-0.055,-0.037,-0.025,102.0,104.0,101.0,13.4,1505.3,326.3,-0.7,1.9,2470.368,13.33,0.066,236.1
2020-09-03T03:58:02,42.805,6.029,-0.024,-0.021,-0.001,102.0,105.0,101.0,13.4,1505.3,325.1,-0.7,1.8,2470.344,13.33,0.031,228.8
2020-09-03T04:04:03,42.805,6.029,-0.019,-0.024,0.0,102.0,103.0,101.0,13.3,1505.3,327.9,-0.7,1.8,2470.379,13.31,0.03,218.4
2020-09-03T04:07:02,42.805,6.029,-0.022,-0.021,0.015,103.0,104.0,101.0,13.3,1505.3,327.9,-0.7,1.8,2470.357,13.31,0.03,226.3
2020-09-03T04:10:04,42.805,6.029,-0.037,-0.042,-0.024,103.0,105.0,101.0,13.4,1505.3,324.3,-0.7,1.8,2470.34,13.32,0.055,221.4
2020-09-03T04:13:03,42.805,6.029,-0.015,-0.038,0.007,104.0,105.0,102.0,13.3,1505.3,326.8,-0.7,1.8,2470.373,13.32,0.04,201.5
2020-09-03T04:16:03,42.805,6.029,-0.001,-0.032,-0.006,103.0,104.0,101.0,13.3,1505.3,326.3,-0.7,1.8,2470.323,13.32,0.032,181.8
2020-09-03T04:19:03,42.805,6.029,-0.011,-0.043,0.036,103.0,105.0,100.0,13.4,1505.3,326.5,-0.7,1.8,2470.329,13.33,0.044,194.3
2020-09-03T04:22:03,42.805,6.029,-0.042,-0.038,-0.02,104.0,104.0,101.0,13.4,1505.3,326.5,-0.7,1.8,2470.364,13.33,0.056,227.9
2020-09-03T04:25:03,42.805,6.029,0.0,-0.043,0.02,102.0,105.0,102.0,13.3,1505.3,325.9,-0.7,1.8,2470.39,13.33,0.043,180.0
2020-09-03T04:28:03,42.805,6.029,-0.006,-0.01,-0.009,103.0,105.0,101.0,13.4,1505.3,326.3,-0.8,1.8,2470.349,13.33,0.011,211.0
2020-09-03T04:31:03,42.805,6.029,-0.034,-0.051,-0.018,104.0,104.0,100.0,13.4,1505.3,326.7,-0.7,1.8,2470.375,13.33,0.061,213.7
2020-09-03T04:34:03,42.805,6.029,-0.019,-0.036,0.001,103.0,106.0,102.0,13.4,1505.3,322.9,-0.7,1.8,2470.359,13.33,0.04,207.8
2020-09-03T04:37:03,42.805,6.029,-0.02,-0.021,-0.025,104.0,103.0,101.0,13.4,1505.3,325.0,-0.7,1.8,2470.402,13.33,0.028,223.6
2020-09-03T04:40:03,42.805,6.029,-0.048,-0.019,0.014,104.0,104.0,101.0,13.3,1505.3,323.5,-0.7,1.8,2470.37,13.33,0.051,248.4
2020-09-03T04:43:03,42.805,6.029,-0.011,-0.052,-0.015,104.0,105.0,103.0,13.4,1505.3,326.0,-0.7,1.8,2470.335,13.33,0.053,191.9
2020-09-03T04:46:05,42.805,6.029,-0.027,-0.041,-0.018,104.0,104.0,99.0,13.4,1505.3,323.1,-0.7,1.8,2470.353,13.32,0.049,213.4
2020-09-03T04:49:03,42.805,6.029,-0.032,-0.018,0.02,104.0,105.0,102.0,13.4,1505.3,324.4,-0.7,1.8,2470.348,13.33,0.036,240.6
2020-09-03T04:52:03,42.805,6.029,-0.052,-0.038,-0.047,103.0,105.0,102.0,13.3,1505.3,328.1,-0.7,1.8,2470.353,13.33,0.064,233.8
2020-09-03T04:55:03,42.805,6.029,-0.024,-0.028,0.003,104.0,105.0,101.0,13.4,1505.3,325.7,-0.7,1.8,2470.341,13.33,0.036,220.6
2020-09-03T04:58:03,42.805,6.029,-0.025,-0.023,-0.001,105.0,104.0,102.0,13.3,1505.3,323.5,-0.7,1.8,2470.372,13.33,0.033,227.4
2020-09-03T05:04:03,42.805,6.029,-0.006,-0.025,0.008,103.0,104.0,101.0,13.4,1505.3,325.1,-0.7,1.8,2470.428,13.31,0.025,193.5
2020-09-03T05:07:03,42.805,6.029,-0.039,-0.023,0.022,103.0,105.0,102.0,13.4,1505.3,324.4,-0.7,1.8,2470.395,13.31,0.045,239.5
2020-09-03T05:10:03,42.805,6.029,-0.031,-0.041,-0.021,104.0,104.0,101.0,13.4,1505.3,325.9,-0.7,1.9,2470.388,13.32,0.051,217.1
2020-09-03T05:13:02,42.805,6.029,-0.049,-0.03,-0.031,104.0,105.0,101.0,13.4,1505.3,323.5,-0.7,1.8,2470.425,13.32,0.057,238.5
2020-09-03T05:16:05,42.805,6.029,-0.042,-0.027,-0.024,104.0,104.0,102.0,13.4,1505.3,326.0,-0.7,1.8,2470.359,13.32,0.049,237.3
2020-09-03T05:19:03,42.805,6.029,-0.021,-0.033,-0.002,104.0,105.0,102.0,13.4,1505.3,326.1,-0.7,1.8,2470.387,13.32,0.039,212.5
2020-09-03T05:22:02,42.805,6.029,-0.032,-0.028,0.008,104.0,105.0,102.0,13.4,1505.3,327.1,-0.7,1.8,2470.419,13.32,0.042,228.8
2020-09-03T05:25:04,42.805,6.029,-0.067,-0.028,-0.006,104.0,103.0,101.0,13.4,1505.3,325.5,-0.7,1.8,2470.399,13.32,0.072,247.3
2020-09-03T05:28:03,42.805,6.029,-0.032,-0.041,-0.022,102.0,104.0,102.0,13.4,1505.3,323.1,-0.7,1.8,2470.402,13.32,0.052,218.0
2020-09-03T05:31:03,42.805,6.029,-0.02,-0.017,0.005,103.0,105.0,101.0,13.4,1505.3,325.6,-0.7,1.8,2470.419,13.32,0.026,229.6
2020-09-03T05:34:02,42.805,6.029,-0.036,-0.018,-0.014,103.0,105.0,102.0,13.4,1505.3,326.1,-0.7,1.8,2470.394,13.32,0.04,243.4
2020-09-03T05:37:03,42.805,6.029,-0.022,-0.024,0.021,103.0,105.0,101.0,13.4,1505.3,327.9,-0.7,1.8,2470.425,13.32,0.032,222.5
2020-09-03T05:40:03,42.805,6.029,-0.034,-0.026,-0.012,103.0,105.0,101.0,13.4,1505.3,326.7,-0.7,1.8,2470.445,13.32,0.042,232.6
2020-09-03T05:43:03,42.805,6.029,-0.06,-0.009,-0.037,105.0,104.0,101.0,13.4,1505.3,327.4,-0.7,1.8,2470.385,13.32,0.06,261.5
2020-09-03T05:46:03,42.805,6.029,-0.013,-0.029,-0.024,104.0,104.0,101.0,13.4,1505.3,326.4,-0.7,1.8,2470.418,13.32,0.031,204.1
2020-09-03T05:52:03,42.805,6.029,-0.025,-0.027,0.0,107.0,104.0,100.0,13.4,1505.2,327.2,-0.7,1.8,2470.465,13.3,0.036,222.8
2020-09-03T05:55:03,42.805,6.029,-0.025,-0.032,-0.023,103.0,102.0,100.0,13.3,1505.3,326.6,-0.7,1.8,2470.441,13.31,0.04,218.0
2020-09-03T05:58:02,42.805,6.029,-0.017,-0.011,-0.008,103.0,104.0,101.0,13.4,1505.3,325.5,-0.7,1.8,2470.439,13.32,0.02,237.1
2020-09-03T06:04:03,42.805,6.029,-0.047,-0.012,-0.029,102.0,104.0,101.0,13.4,1505.2,324.6,-0.8,1.8,2470.533,13.3,0.048,255.7
2020-09-03T06:07:02,42.805,6.029,-0.036,-0.023,0.027,104.0,103.0,101.0,13.4,1505.3,326.9,-0.8,1.9,2470.481,13.31,0.042,237.4
2020-09-03T06:10:03,42.805,6.029,-0.024,-0.022,-0.002,103.0,105.0,101.0,13.4,1505.3,325.3,-0.7,1.8,2470.493,13.32,0.032,227.5
2020-09-03T06:13:03,42.805,6.029,-0.027,-0.035,-0.005,102.0,106.0,102.0,13.4,1505.3,327.4,-0.7,1.8,2470.472,13.32,0.044,217.7
2020-09-03T06:16:02,42.805,6.029,-0.048,-0.032,-0.034,103.0,105.0,101.0,13.3,1505.3,325.2,-0.7,1.8,2470.478,13.32,0.057,236.3
2020-09-03T06:19:03,42.805,6.029,-0.045,-0.034,-0.017,103.0,103.0,100.0,13.3,1505.3,323.3,-0.7,1.8,2470.451,13.32,0.056,232.9
2020-09-03T06:22:03,42.805,6.029,-0.032,-0.025,0.0,103.0,104.0,101.0,13.3,1505.3,326.6,-0.7,1.8,2470.489,13.32,0.04,232.0
2020-09-03T06:25:03,42.805,6.029,-0.045,-0.028,0.003,103.0,104.0,101.0,13.4,1505.3,324.9,-0.7,1.8,2470.468,13.32,0.053,238.1
2020-09-03T06:28:03,42.805,6.029,-0.02,-0.013,0.005,103.0,104.0,101.0,13.3,1505.3,324.8,-0.7,1.8,2470.462,13.32,0.023,237.0
2020-09-03T06:31:03,42.805,6.029,-0.067,-0.01,-0.03,103.0,105.0,101.0,13.4,1505.3,326.2,-0.7,1.9,2470.488,13.32,0.067,261.5
2020-09-03T06:34:03,42.805,6.029,-0.048,-0.029,-0.02,104.0,104.0,101.0,13.4,1505.3,324.8,-0.7,1.8,2470.475,13.32,0.056,238.9
2020-09-03T06:37:03,42.805,6.029,-0.047,-0.048,-0.036,102.0,104.0,101.0,13.4,1505.3,325.2,-0.7,1.8,2470.461,13.32,0.067,224.4
2020-09-03T06:40:03,42.805,6.029,-0.025,-0.01,0.007,104.0,104.0,100.0,13.4,1505.3,324.5,-0.7,1.8,2470.436,13.32,0.026,248.2
2020-09-03T06:43:03,42.805,6.029,-0.034,-0.035,-0.023,103.0,104.0,101.0,13.3,1505.3,325.1,-0.7,1.9,2470.467,13.32,0.048,224.2
2020-09-03T06:46:03,42.805,6.029,-0.045,-0.018,0.001,103.0,104.0,101.0,13.3,1505.3,326.6,-0.7,1.9,2470.487,13.32,0.048,248.2
2020-09-03T06:49:03,42.805,6.029,-0.023,-0.046,0.005,104.0,105.0,102.0,13.4,1505.3,323.1,-0.7,1.9,2470.449,13.32,0.051,206.6
2020-09-03T06:52:03,42.805,6.029,-0.019,-0.04,0.005,106.0,106.0,100.0,13.4,1505.3,325.5,-0.7,1.8,2470.456,13.32,0.044,205.4
2020-09-03T06:55:03,42.805,6.029,-0.04,-0.041,-0.012,103.0,105.0,101.0,13.4,1505.3,327.7,-0.7,1.8,2470.469,13.32,0.057,224.3
2020-09-03T06:58:03,42.805,6.029,-0.008,-0.021,0.0,104.0,105.0,101.0,13.4,1505.3,324.3,-0.7,1.8,2470.482,13.32,0.022,200.9
2020-09-03T07:04:03,42.805,6.029,-0.064,-0.034,-0.044,103.0,106.0,100.0,13.4,1505.2,324.3,-0.7,1.8,2470.477,13.3,0.072,242.0
2020-09-03T07:07:03,42.805,6.029,-0.028,-0.024,0.006,106.0,106.0,101.0,13.3,1505.3,325.9,-0.7,1.9,2470.506,13.31,0.036,229.4
2020-09-03T07:10:03,42.805,6.029,-0.019,-0.027,0.006,104.0,106.0,101.0,13.3,1505.3,324.9,-0.7,1.8,2470.501,13.32,0.033,215.1
2020-09-03T07:13:03,42.805,6.029,-0.034,-0.026,-0.008,104.0,104.0,101.0,13.3,1505.3,324.7,-0.7,1.8,2470.488,13.32,0.042,232.6
2020-09-03T07:16:03,42.805,6.029,-0.031,-0.012,-0.02,103.0,104.0,102.0,13.3,1505.3,326.3,-0.7,1.8,2470.527,13.32,0.033,248.8
2020-09-03T07:19:03,42.805,6.029,-0.049,-0.032,-0.031,103.0,104.0,102.0,13.4,1505.3,326.9,-0.7,1.8,2470.497,13.32,0.058,236.8
2020-09-03T07:22:02,42.805,6.029,-0.063,0.001,-0.005,103.0,105.0,101.0,13.3,1505.3,326.7,-0.7,1.8,2470.488,13.32,0.063,270.9
2020-09-03T07:25:03,42.805,6.029,-0.042,-0.026,-0.02,105.0,104.0,101.0,13.4,1505.3,326.0,-0.7,1.9,2470.496,13.32,0.049,238.2
2020-09-03T07:28:03,42.805,6.029,-0.021,-0.015,-0.022,103.0,104.0,101.0,13.4,1505.3,323.5,-0.7,1.9,2470.491,13.32,0.025,234.5
2020-09-03T07:31:03,42.805,6.029,-0.022,-0.028,0.015,104.0,106.0,101.0,13.3,1505.3,324.7,-0.7,1.8,2470.544,13.32,0.035,218.2
2020-09-03T07:34:03,42.805,6.029,-0.053,-0.002,0.006,104.0,105.0,101.0,13.3,1505.3,325.9,-0.7,1.8,2470.498,13.32,0.053,267.8
2020-09-03T07:37:02,42.805,6.029,-0.025,-0.023,-0.003,103.0,105.0,102.0,13.4,1505.3,328.2,-0.7,1.8,2470.47,13.32,0.033,227.4
2020-09-03T07:40:03,42.805,6.029,-0.048,-0.015,0.039,105.0,105.0,101.0,13.4,1505.3,326.2,-0.7,1.8,2470.462,13.32,0.05,252.6
2020-09-03T07:43:03,42.805,6.029,-0.048,-0.034,-0.023,105.0,104.0,101.0,13.4,1505.3,322.6,-0.7,1.8,2470.461,13.32,0.058,234.7
2020-09-03T07:46:02,42.805,6.029,-0.039,-0.01,0.002,104.0,106.0,101.0,13.4,1505.3,324.9,-0.7,1.9,2470.434,13.32,0.04,255.6
2020-09-03T07:49:03,42.805,6.029,-0.046,-0.019,0.012,104.0,106.0,101.0,13.4,1505.3,324.2,-0.7,1.8,2470.448,13.32,0.049,247.6
2020-09-03T07:52:03,42.805,6.029,-0.063,-0.012,-0.002,105.0,106.0,103.0,13.4,1505.3,323.2,-0.7,1.8,2470.479,13.32,0.064,259.2
2020-09-03T07:55:03,42.805,6.029,-0.051,-0.023,-0.033,105.0,104.0,101.0,13.3,1505.3,327.9,-0.7,1.8,2470.444,13.32,0.055,245.7
2020-09-03T07:58:03,42.805,6.029,-0.01,-0.028,0.022,105.0,104.0,102.0,13.4,1505.3,327.1,-0.7,1.8,2470.474,13.32,0.029,199.6
2020-09-03T08:04:03,42.805,6.029,-0.027,-0.023,-0.005,104.0,105.0,100.0,13.4,1505.2,328.1,-0.7,1.8,2470.471,13.3,0.035,229.6
2020-09-03T08:07:03,42.805,6.029,-0.035,-0.029,0.008,103.0,105.0,101.0,13.4,1505.3,323.6,-0.7,1.8,2470.464,13.31,0.045,230.4
2020-09-03T08:10:03,42.805,6.029,-0.035,-0.023,0.016,105.0,106.0,102.0,13.3,1505.3,326.8,-0.7,1.8,2470.476,13.32,0.041,236.7
2020-09-03T08:13:03,42.805,6.029,-0.018,-0.005,-0.002,102.0,104.0,101.0,13.4,1505.3,324.6,-0.7,1.8,2470.498,13.32,0.018,254.5
2020-09-03T08:16:03,42.805,6.029,-0.029,-0.017,-0.003,103.0,105.0,101.0,13.4,1505.3,324.9,-0.7,1.9,2470.459,13.32,0.033,239.6
2020-09-03T08:19:03,42.805,6.029,-0.046,-0.028,-0.004,104.0,106.0,101.0,13.3,1505.3,325.5,-0.6,1.8,2470.473,13.32,0.053,238.7
2020-09-03T08:22:03,42.805,6.029,-0.058,-0.024,-0.041,104.0,103.0,101.0,13.3,1505.3,324.5,-0.7,1.8,2470.438,13.32,0.062,247.5
2020-09-03T08:25:02,42.805,6.029,-0.024,-0.033,-0.03,101.0,105.0,101.0,13.3,1505.3,328.2,-0.7,1.8,2470.534,13.32,0.04,216.0
2020-09-03T08:28:03,42.805,6.029,-0.058,-0.013,-0.027,104.0,106.0,100.0,13.3,1505.3,327.4,-0.7,1.8,2470.478,13.32,0.059,257.4
2020-09-03T08:31:03,42.805,6.029,-0.037,-0.019,-0.014,103.0,104.0,101.0,13.4,1505.3,326.9,-0.7,1.8,2470.499,13.32,0.041,242.8
2020-09-03T08:34:03,42.805,6.029,-0.061,-0.023,-0.029,104.0,105.0,102.0,13.4,1505.3,325.6,-0.7,1.9,2470.478,13.32,0.065,249.3
2020-09-03T08:37:02,42.805,6.029,-0.022,-0.028,0.001,104.0,105.0,100.0,13.4,1505.3,326.3,-0.7,1.8,2470.491,13.32,0.035,218.2
2020-09-03T08:40:03,42.805,6.029,-0.047,-0.027,-0.008,104.0,106.0,102.0,13.4,1505.3,324.9,-0.7,1.8,2470.441,13.32,0.054,240.1
2020-09-03T08:43:03,42.805,6.029,-0.032,-0.018,-0.005,104.0,106.0,101.0,13.3,1505.3,326.9,-0.7,1.8,2470.492,13.32,0.036,240.6
2020-09-03T08:46:03,42.805,6.029,-0.024,-0.015,0.012,103.0,104.0,102.0,13.4,1505.3,322.8,-0.7,1.8,2470.476,13.33,0.028,238.0
2020-09-03T08:49:03,42.805,6.029,-0.029,-0.02,-0.006,103.0,104.0,101.0,13.3,1505.3,326.9,-0.7,1.8,2470.473,13.32,0.035,235.4
2020-09-03T08:52:02,42.805,6.029,-0.01,-0.033,-0.004,103.0,106.0,102.0,13.3,1505.3,323.7,-0.7,1.8,2470.468,13.32,0.034,196.9
2020-09-03T08:55:02,42.805,6.029,-0.039,-0.021,-0.027,103.0,105.0,102.0,13.4,1505.3,325.0,-0.7,1.8,2470.484,13.33,0.044,241.7
2020-09-03T08:58:02,42.805,6.029,-0.04,-0.007,-0.005,104.0,105.0,100.0,13.3,1505.3,324.6,-0.7,1.8,2470.413,13.33,0.04,260.1
2020-09-03T09:04:03,42.805,6.029,-0.017,-0.019,-0.005,103.0,106.0,102.0,13.3,1505.3,327.4,-0.8,1.8,2470.471,13.31,0.025,221.8
2020-09-03T09:07:02,42.805,6.029,-0.026,0.006,0.014,103.0,106.0,101.0,13.4,1505.3,323.2,-0.8,1.8,2470.492,13.31,0.026,283.0
2020-09-03T09:10:03,42.805,6.029,-0.047,-0.022,0.0,104.0,106.0,101.0,13.4,1505.3,326.5,-0.7,1.8,2470.517,13.32,0.051,244.9
2020-09-03T09:13:03,42.805,6.029,-0.038,-0.02,-0.014,105.0,106.0,101.0,13.4,1505.3,323.6,-0.7,1.8,2470.47,13.32,0.042,242.2
2020-09-03T09:16:03,42.805,6.029,-0.041,-0.01,0.011,103.0,105.0,101.0,13.4,1505.3,324.0,-0.7,1.8,2470.521,13.32,0.042,256.3
2020-09-03T09:19:03,42.805,6.029,-0.054,-0.009,0.0,103.0,106.0,102.0,13.4,1505.3,325.0,-0.7,1.8,2470.449,13.32,0.054,260.5
2020-09-03T09:22:02,42.805,6.029,-0.021,-0.026,0.009,103.0,105.0,101.0,13.4,1505.3,325.2,-0.7,1.8,2470.463,13.32,0.033,218.9
2020-09-03T09:25:03,42.805,6.029,-0.05,-0.034,-0.011,104.0,105.0,101.0,13.4,1505.3,327.8,-0.7,1.8,2470.435,13.32,0.06,235.8
2020-09-03T09:28:02,42.805,6.029,-0.01,-0.039,-0.014,103.0,107.0,101.0,13.3,1505.3,323.4,-0.7,1.8,2470.471,13.32,0.04,194.4
2020-09-03T09:31:06,42.805,6.029,-0.053,-0.024,-0.015,103.0,105.0,101.0,13.4,1505.3,325.2,-0.7,1.8,2470.425,13.32,0.058,245.6
2020-09-03T09:34:02,42.805,6.029,-0.031,-0.032,-0.013,104.0,106.0,101.0,13.4,1505.3,326.9,-0.7,1.8,2470.457,13.32,0.044,224.1
2020-09-03T09:37:03,42.805,6.029,-0.026,-0.013,-0.025,104.0,105.0,101.0,13.4,1505.3,323.8,-0.7,1.8,2470.431,13.33,0.029,243.4
2020-09-03T09:40:02,42.805,6.029,-0.065,-0.01,-0.013,103.0,105.0,101.0,13.4,1505.3,325.5,-0.7,1.8,2470.451,13.32,0.065,261.3
2020-09-03T09:43:03,42.805,6.029,-0.065,-0.033,-0.02,103.0,104.0,100.0,13.4,1505.3,328.1,-0.7,1.8,2470.423,13.32,0.072,243.1
2020-09-03T09:46:03,42.805,6.029,-0.023,-0.02,0.015,104.0,105.0,100.0,13.3,1505.3,322.8,-0.7,1.8,2470.462,13.32,0.03,229.0
2020-09-03T09:49:03,42.805,6.029,-0.025,-0.048,-0.03,103.0,106.0,101.0,13.3,1505.3,326.5,-0.7,1.9,2470.425,13.32,0.054,207.5
2020-09-03T09:52:03,42.805,6.029,-0.076,-0.022,-0.05,103.0,105.0,100.0,13.4,1505.3,327.3,-0.7,1.9,2470.418,13.33,0.079,253.9
2020-09-03T09:55:02,42.805,6.029,-0.05,-0.023,0.001,103.0,105.0,101.0,13.3,1505.3,325.7,-0.7,1.9,2470.456,13.32,0.055,245.3
2020-09-03T09:58:02,42.805,6.029,-0.037,-0.009,0.0,104.0,105.0,102.0,13.3,1505.3,324.0,-0.7,1.9,2470.421,13.32,0.038,256.3
2020-09-03T10:04:02,42.805,6.029,-0.051,-0.005,-0.01,103.0,105.0,101.0,13.3,1505.3,326.0,-0.7,1.8,2470.443,13.31,0.051,264.4